,,,PA_Meas_PMT16A,,PR_Meas_QMR101_102,,RH_Meas_QMH101,,SR_Meas_QMS101,,TA_Meas_QMH101,,GenWind,,GenWind,
date,time,status,PA,status,PR,status,RH,status,SR,status,TA,status,DirAvg,status,SpdAvg,
2009-07-17, 00:00:04,VALID,999.971,VALID,0,VALID,48.7533,VALID,0,VALID,27.8014,VALID,172,VALID,3.75586,
2009-07-17, 00:01:04,VALID,999.985,VALID,0,VALID,49.0279,VALID,0,VALID,27.7407,VALID,172,VALID,3.36641,
2009-07-17, 00:02:04,VALID,1000.01,VALID,0,VALID,49.6002,VALID,0,VALID,27.6647,VALID,176,VALID,3.59687,
2009-07-17, 00:03:04,VALID,999.997,VALID,0,VALID,49.6917,VALID,0,VALID,27.5865,VALID,173,VALID,3.71797,
2009-07-17, 00:04:04,VALID,1000.02,VALID,0,VALID,49.3713,VALID,0,VALID,27.5845,VALID,196,VALID,3.7832,
2009-07-17, 00:05:04,VALID,1000.01,VALID,0,VALID,49.768,VALID,0,VALID,27.6235,VALID,183,VALID,2.6957,
2009-07-17, 00:06:04,VALID,1000.02,VALID,0,VALID,49.6841,VALID,0,VALID,27.6061,VALID,181,VALID,2.96367,
2009-07-17, 00:07:04,VALID,999.965,VALID,0,VALID,49.6536,VALID,0,VALID,27.5865,VALID,168,VALID,4.12422,
2009-07-17, 00:08:04,VALID,999.965,VALID,0,VALID,48.8448,VALID,0,VALID,27.6061,VALID,185,VALID,5.04766,
2009-07-17, 00:09:04,VALID,999.988,VALID,0,VALID,48.5396,VALID,0,VALID,27.7407,VALID,187,VALID,3.83984,
2009-07-17, 00:10:04,VALID,999.972,VALID,0,VALID,48.1124,VALID,0,VALID,27.7993,VALID,208,VALID,4.04531,
2009-07-17, 00:11:04,VALID,999.973,VALID,0,VALID,47.9751,VALID,0,VALID,27.8579,VALID,203,VALID,3.73086,
2009-07-17, 00:12:04,VALID,999.971,VALID,0,VALID,48.4023,VALID,0,VALID,27.8189,VALID,180,VALID,3.80977,
2009-07-17, 00:13:04,VALID,999.927,VALID,0,VALID,48.2955,VALID,0,VALID,27.7993,VALID,185,VALID,4.49766,
2009-07-17, 00:14:04,VALID,999.95,VALID,0,VALID,47.7156,VALID,0,VALID,27.8991,VALID,177,VALID,4.93047,
2009-07-17, 00:15:04,VALID,999.919,VALID,0,VALID,47.5325,VALID,0,VALID,27.9187,VALID,176,VALID,5.20742,
2009-07-17, 00:16:04,VALID,999.912,VALID,0,VALID,47.8301,VALID,0,VALID,27.9577,VALID,171,VALID,3.71523,
2009-07-17, 00:17:04,VALID,999.882,VALID,0,VALID,47.5783,VALID,0,VALID,27.8775,VALID,186,VALID,3.38516,
2009-07-17, 00:18:04,VALID,999.91,VALID,0,VALID,47.4944,VALID,0,VALID,27.8991,VALID,199,VALID,3.32852,
2009-07-17, 00:19:04,VALID,999.851,VALID,0,VALID,47.9598,VALID,0,VALID,27.8189,VALID,187,VALID,3.89961,
2009-07-17, 00:20:04,VALID,999.898,VALID,0,VALID,48.2268,VALID,0,VALID,27.821,VALID,171,VALID,3.58281,
2009-07-17, 00:21:04,VALID,999.829,VALID,0,VALID,48.4328,VALID,0,VALID,27.7407,VALID,176,VALID,4.12148,
2009-07-17, 00:22:04,VALID,999.85,VALID,0,VALID,49.0356,VALID,0,VALID,27.6842,VALID,169,VALID,3.30586,
2009-07-17, 00:23:04,VALID,999.835,VALID,0,VALID,49.5086,VALID,0,VALID,27.5865,VALID,165,VALID,3.07773,
2009-07-17, 00:24:04,VALID,999.807,VALID,0,VALID,49.5086,VALID,0,VALID,27.4672,VALID,180,VALID,3.48555,
2009-07-17, 00:25:04,VALID,999.801,VALID,0,VALID,48.6693,VALID,0,VALID,27.5279,VALID,207,VALID,2.98281,
2009-07-17, 00:26:04,VALID,999.805,VALID,0,VALID,48.2879,VALID,0,VALID,27.6235,VALID,188,VALID,3.4625,
2009-07-17, 00:27:04,VALID,999.848,VALID,0,VALID,48.9364,VALID,0,VALID,27.6626,VALID,183,VALID,3.93555,
2009-07-17, 00:28:04,VALID,999.821,VALID,0,VALID,48.1048,VALID,0,VALID,27.6821,VALID,172,VALID,3.73633,
2009-07-17, 00:29:04,VALID,999.826,VALID,0,VALID,47.9751,VALID,0,VALID,27.6626,VALID,160,VALID,4.14531,
2009-07-17, 00:30:04,VALID,999.79,VALID,0,VALID,48.2039,VALID,0,VALID,27.6821,VALID,181,VALID,3.3207,
2009-07-17, 00:31:04,VALID,999.822,VALID,0,VALID,47.9598,VALID,0,VALID,27.7017,VALID,175,VALID,3.50078,
2009-07-17, 00:32:04,VALID,999.817,VALID,0,VALID,47.647,VALID,0.112286,VALID,27.7212,VALID,200,VALID,3.90117,
2009-07-17, 00:33:04,VALID,999.798,VALID,0,VALID,47.6088,VALID,0,VALID,27.7212,VALID,173,VALID,3.56797,
2009-07-17, 00:34:04,VALID,999.724,VALID,0,VALID,47.4028,VALID,0.112286,VALID,27.7017,VALID,175,VALID,4.11094,
2009-07-17, 00:35:04,VALID,999.75,VALID,0,VALID,47.0976,VALID,0.112286,VALID,27.7407,VALID,196,VALID,2.93359,
2009-07-17, 00:36:04,VALID,999.767,VALID,0,VALID,47.5249,VALID,0,VALID,27.7993,VALID,199,VALID,2.76016,
2009-07-17, 00:37:04,VALID,999.77,VALID,0,VALID,47.2731,VALID,0.112286,VALID,27.7798,VALID,187,VALID,2.94141,
2009-07-17, 00:38:04,VALID,999.749,VALID,0,VALID,47.2808,VALID,0,VALID,27.7798,VALID,186,VALID,2.67656,
2009-07-17, 00:39:04,VALID,999.722,VALID,0,VALID,47.4257,VALID,0,VALID,27.7798,VALID,174,VALID,2.7293,
2009-07-17, 00:40:04,VALID,999.732,VALID,0,VALID,47.6546,VALID,0,VALID,27.7017,VALID,174,VALID,2.83164,
2009-07-17, 00:41:04,VALID,999.699,VALID,0,VALID,47.6699,VALID,0,VALID,27.7059,VALID,171,VALID,2.27969,
2009-07-17, 00:42:04,VALID,999.659,VALID,0,VALID,47.4639,VALID,0,VALID,27.6431,VALID,177,VALID,4.16445,
2009-07-17, 00:43:04,VALID,999.668,VALID,0,VALID,47.2502,VALID,0,VALID,27.6256,VALID,177,VALID,4.36836,
2009-07-17, 00:44:04,VALID,999.672,VALID,0,VALID,47.1205,VALID,0,VALID,27.6452,VALID,181,VALID,4.18945,
2009-07-17, 00:45:04,VALID,999.693,VALID,0,VALID,47.7385,VALID,0,VALID,27.6647,VALID,190,VALID,2.36523,
2009-07-17, 00:46:04,VALID,999.654,VALID,0,VALID,47.3647,VALID,0,VALID,27.6452,VALID,177,VALID,2.44688,
2009-07-17, 00:47:04,VALID,999.649,VALID,0,VALID,47.5707,VALID,0,VALID,27.6452,VALID,180,VALID,3.32461,
2009-07-17, 00:48:04,VALID,999.659,VALID,0,VALID,47.502,VALID,0,VALID,27.6647,VALID,183,VALID,3.88594,
2009-07-17, 00:49:04,VALID,999.625,VALID,0,VALID,47.2655,VALID,0,VALID,27.6647,VALID,185,VALID,3.68633,
2009-07-17, 00:50:04,VALID,999.562,VALID,0,VALID,47.4181,VALID,0,VALID,27.6842,VALID,186,VALID,4.34961,
2009-07-17, 00:51:04,VALID,999.579,VALID,0,VALID,47.6317,VALID,0,VALID,27.7017,VALID,184,VALID,3.69609,
2009-07-17, 00:52:04,VALID,999.596,VALID,0,VALID,47.2884,VALID,0,VALID,27.7038,VALID,194,VALID,3.24883,
2009-07-17, 00:53:04,VALID,999.616,VALID,0,VALID,47.6165,VALID,0,VALID,27.7038,VALID,191,VALID,2.93633,
2009-07-17, 00:54:04,VALID,999.586,VALID,0,VALID,47.441,VALID,0,VALID,27.7233,VALID,193,VALID,4.38164,
2009-07-17, 00:55:04,VALID,999.612,VALID,0,VALID,47.6928,VALID,0,VALID,27.7624,VALID,180,VALID,3.46055,
2009-07-17, 00:56:04,VALID,999.542,VALID,0,VALID,47.8835,VALID,0,VALID,27.6821,VALID,183,VALID,3.49336,
2009-07-17, 00:57:04,VALID,999.519,VALID,0,VALID,47.6775,VALID,0,VALID,27.6842,VALID,197,VALID,3.0707,
2009-07-17, 00:58:04,VALID,999.469,VALID,0,VALID,47.7843,VALID,0,VALID,27.6647,VALID,188,VALID,3.0457,
2009-07-17, 00:59:04,VALID,999.483,VALID,0,VALID,48.1124,VALID,0,VALID,27.6452,VALID,193,VALID,2.11367,
2009-07-17, 01:00:04,VALID,999.466,VALID,0,VALID,48.7228,VALID,0,VALID,27.5845,VALID,184,VALID,2.84063,
2009-07-17, 01:01:04,VALID,999.456,VALID,0,VALID,48.8982,VALID,0,VALID,27.5454,VALID,184,VALID,3.17422,
2009-07-17, 01:02:04,VALID,999.421,VALID,0,VALID,48.6007,VALID,0,VALID,27.5649,VALID,188,VALID,4.08594,
2009-07-17, 01:03:04,VALID,999.41,VALID,0,VALID,48.799,VALID,0,VALID,27.6473,VALID,194,VALID,3.43906,
2009-07-17, 01:04:04,VALID,999.416,VALID,0,VALID,48.5625,VALID,0,VALID,27.6235,VALID,188,VALID,4.10352,
2009-07-17, 01:05:04,VALID,999.398,VALID,0,VALID,48.7685,VALID,0,VALID,27.6452,VALID,185,VALID,3.95508,
2009-07-17, 01:06:04,VALID,999.439,VALID,0,VALID,48.944,VALID,0,VALID,27.6452,VALID,182,VALID,3.78281,
2009-07-17, 01:07:04,VALID,999.415,VALID,0,VALID,49.1195,VALID,0,VALID,27.6061,VALID,177,VALID,3.54102,
2009-07-17, 01:08:04,VALID,999.401,VALID,0,VALID,48.9974,VALID,0,VALID,27.5475,VALID,189,VALID,3.02227,
2009-07-17, 01:09:04,VALID,999.425,VALID,0,VALID,49.2492,VALID,0,VALID,27.5279,VALID,193,VALID,3.16875,
2009-07-17, 01:10:04,VALID,999.39,VALID,0,VALID,49.0813,VALID,0,VALID,27.4868,VALID,191,VALID,2.95469,
2009-07-17, 01:11:04,VALID,999.375,VALID,0,VALID,49.3026,VALID,0,VALID,27.5084,VALID,194,VALID,1.63555,
2009-07-17, 01:12:04,VALID,999.388,VALID,0,VALID,49.501,VALID,0,VALID,27.4672,VALID,186,VALID,3.14766,
2009-07-17, 01:13:04,VALID,999.358,VALID,0,VALID,49.7756,VALID,0,VALID,27.4303,VALID,230,VALID,1.35625,
2009-07-17, 01:14:04,VALID,999.364,VALID,0,VALID,50.2487,VALID,0,VALID,27.3696,VALID,192,VALID,2.13164,
2009-07-17, 01:15:04,VALID,999.355,VALID,0,VALID,49.7222,VALID,0,VALID,27.35,VALID,199,VALID,2.78437,
2009-07-17, 01:16:04,VALID,999.311,VALID,0,VALID,49.3408,VALID,0,VALID,27.4107,VALID,192,VALID,4.19805,
2009-07-17, 01:17:04,VALID,999.33,VALID,0,VALID,49.8596,VALID,0,VALID,27.4303,VALID,189,VALID,3.34687,
2009-07-17, 01:18:04,VALID,999.327,VALID,0,VALID,49.1576,VALID,0,VALID,27.4693,VALID,198,VALID,4.09688,
2009-07-17, 01:19:04,VALID,999.309,VALID,0,VALID,49.1958,VALID,0,VALID,27.5279,VALID,177,VALID,3.14023,
2009-07-17, 01:20:04,VALID,999.287,VALID,0,VALID,48.9593,VALID,0,VALID,27.5279,VALID,197,VALID,3.00039,
2009-07-17, 01:21:04,VALID,999.255,VALID,0,VALID,49.2416,VALID,0,VALID,27.5279,VALID,197,VALID,2.13477,
2009-07-17, 01:22:04,VALID,999.223,VALID,0,VALID,49.4476,VALID,0,VALID,27.4889,VALID,202,VALID,2.0457,
2009-07-17, 01:23:04,VALID,999.185,VALID,0,VALID,49.5239,VALID,0,VALID,27.4498,VALID,189,VALID,2.9918,
2009-07-17, 01:24:04,VALID,999.163,VALID,0,VALID,49.5162,VALID,0,VALID,27.4303,VALID,185,VALID,3.63984,
2009-07-17, 01:25:04,VALID,999.178,VALID,0,VALID,49.4399,VALID,0,VALID,27.4498,VALID,178,VALID,4.22148,
2009-07-17, 01:26:04,VALID,999.164,VALID,0,VALID,49.3789,VALID,0,VALID,27.4889,VALID,182,VALID,4.09961,
2009-07-17, 01:27:04,VALID,999.176,VALID,0,VALID,49.4628,VALID,0,VALID,27.4693,VALID,184,VALID,3.68477,
2009-07-17, 01:28:04,VALID,999.139,VALID,0,VALID,49.2492,VALID,0,VALID,27.4477,VALID,187,VALID,3.14766,
2009-07-17, 01:29:04,VALID,999.149,VALID,0,VALID,49.6002,VALID,0,VALID,27.4303,VALID,195,VALID,2.66211,
2009-07-17, 01:30:04,VALID,999.153,VALID,0,VALID,49.8367,VALID,0,VALID,27.3912,VALID,188,VALID,1.89688,
2009-07-17, 01:31:04,VALID,999.134,VALID,0,VALID,49.5925,VALID,0,VALID,27.311,VALID,182,VALID,3.96875,
2009-07-17, 01:32:04,VALID,999.114,VALID,0,VALID,49.0127,VALID,0,VALID,27.4107,VALID,183,VALID,6.14492,
2009-07-17, 01:33:04,VALID,999.143,VALID,0,VALID,49.2568,VALID,0,VALID,27.4672,VALID,194,VALID,3.95977,
2009-07-17, 01:34:04,VALID,999.164,VALID,0,VALID,49.0661,VALID,0,VALID,27.4889,VALID,197,VALID,2.96484,
2009-07-17, 01:35:04,VALID,999.148,VALID,0,VALID,49.2263,VALID,0,VALID,27.5063,VALID,208,VALID,2.16406,
2009-07-17, 01:36:04,VALID,999.121,VALID,0,VALID,49.3636,VALID,0,VALID,27.4498,VALID,216,VALID,2.5168,
2009-07-17, 01:37:04,VALID,999.126,VALID,0,VALID,49.0661,VALID,0,VALID,27.4086,VALID,194,VALID,3.41367,
2009-07-17, 01:38:04,VALID,999.133,VALID,0,VALID,49.417,VALID,0,VALID,27.4107,VALID,218,VALID,3.00391,
2009-07-17, 01:39:04,VALID,999.162,VALID,0,VALID,49.6536,VALID,0,VALID,27.3891,VALID,215,VALID,1.65234,
2009-07-17, 01:40:04,VALID,999.159,VALID,0,VALID,49.5162,VALID,0,VALID,27.3717,VALID,211,VALID,2.09102,
2009-07-17, 01:41:04,VALID,999.092,VALID,0,VALID,49.3942,VALID,0,VALID,27.35,VALID,211,VALID,2.76953,
2009-07-17, 01:42:04,VALID,999.088,VALID,0,VALID,49.3408,VALID,0,VALID,27.4107,VALID,211,VALID,2.6332,
2009-07-17, 01:43:04,VALID,999.086,VALID,0,VALID,49.3102,VALID,0,VALID,27.4107,VALID,197,VALID,2.59648,
2009-07-17, 01:44:04,VALID,999.086,VALID,0,VALID,49.3179,VALID,0,VALID,27.3912,VALID,192,VALID,2.30312,
2009-07-17, 01:45:04,VALID,999.081,VALID,0,VALID,49.4476,VALID,0,VALID,27.35,VALID,196,VALID,2.48789,
2009-07-17, 01:46:04,VALID,999.049,VALID,0,VALID,49.501,VALID,0,VALID,27.35,VALID,194,VALID,2.52734,
2009-07-17, 01:47:04,VALID,999.072,VALID,0,VALID,49.4399,VALID,0,VALID,27.35,VALID,202,VALID,1.9457,
2009-07-17, 01:48:04,VALID,999.096,VALID,0,VALID,50.1037,VALID,0,VALID,27.311,VALID,194,VALID,2.35391,
2009-07-17, 01:49:04,VALID,999.049,VALID,0,VALID,50.1953,VALID,0,VALID,27.3326,VALID,196,VALID,2.36289,
2009-07-17, 01:50:04,VALID,999.028,VALID,0,VALID,49.6917,VALID,0,VALID,27.2935,VALID,184,VALID,2.9082,
2009-07-17, 01:51:04,VALID,999.004,VALID,0,VALID,49.8596,VALID,0,VALID,27.2935,VALID,195,VALID,1.8207,
2009-07-17, 01:52:04,VALID,998.988,VALID,0,VALID,49.5086,VALID,0,VALID,27.2915,VALID,202,VALID,3.11719,
2009-07-17, 01:53:04,VALID,999.013,VALID,0,VALID,49.8901,VALID,0,VALID,27.311,VALID,179,VALID,3.34375,
2009-07-17, 01:54:04,VALID,998.992,VALID,0,VALID,49.7909,VALID,0,VALID,27.3131,VALID,198,VALID,2.40117,
2009-07-17, 01:55:04,VALID,999.008,VALID,0,VALID,49.5925,VALID,0,VALID,27.3326,VALID,182,VALID,2.95313,
2009-07-17, 01:56:04,VALID,999.012,VALID,0,VALID,49.089,VALID,0,VALID,27.3696,VALID,198,VALID,4.22656,
2009-07-17, 01:57:04,VALID,998.998,VALID,0,VALID,48.9898,VALID,0,VALID,27.4672,VALID,189,VALID,3.33516,
2009-07-17, 01:58:04,VALID,999.003,VALID,0,VALID,49.356,VALID,0,VALID,27.4672,VALID,185,VALID,2.4293,
2009-07-17, 01:59:04,VALID,999.039,VALID,0,VALID,49.15,VALID,0,VALID,27.4282,VALID,192,VALID,1.95273,
2009-07-17, 02:00:04,VALID,998.999,VALID,0,VALID,49.6917,VALID,0,VALID,27.3891,VALID,185,VALID,1.90391,
2009-07-17, 02:01:04,VALID,999.002,VALID,0,VALID,49.3636,VALID,0,VALID,27.3696,VALID,198,VALID,2.6207,
2009-07-17, 02:02:04,VALID,998.97,VALID,0,VALID,49.7985,VALID,0,VALID,27.3305,VALID,209,VALID,2.12773,
2009-07-17, 02:03:04,VALID,998.987,VALID,0,VALID,49.8443,VALID,0,VALID,27.2915,VALID,196,VALID,2.35156,
2009-07-17, 02:04:04,VALID,998.949,VALID,0,VALID,49.3942,VALID,0,VALID,27.35,VALID,211,VALID,2.78086,
2009-07-17, 02:05:04,VALID,998.949,VALID,0,VALID,49.2263,VALID,0,VALID,27.3305,VALID,210,VALID,2.39922,
2009-07-17, 02:06:04,VALID,998.955,VALID,0,VALID,50.2868,VALID,0,VALID,27.311,VALID,220,VALID,1.53867,
2009-07-17, 02:07:04,VALID,998.956,VALID,0,VALID,50.0732,VALID,0,VALID,27.3131,VALID,208,VALID,1.51992,
2009-07-17, 02:08:04,VALID,998.91,VALID,0,VALID,50.0885,VALID,0,VALID,27.2719,VALID,226,VALID,1.63555,
2009-07-17, 02:09:04,VALID,998.885,VALID,0,VALID,49.4628,VALID,0,VALID,27.2915,VALID,216,VALID,2.41367,
2009-07-17, 02:10:04,VALID,998.932,VALID,0,VALID,49.501,VALID,0,VALID,27.3305,VALID,205,VALID,2.38516,
2009-07-17, 02:11:04,VALID,998.932,VALID,0,VALID,50.0122,VALID,0,VALID,27.311,VALID,223,VALID,2.34609,
2009-07-17, 02:12:04,VALID,998.926,VALID,0,VALID,50.9125,VALID,0,VALID,27.2329,VALID,221,VALID,1.53281,
2009-07-17, 02:13:04,VALID,998.913,VALID,0,VALID,50.2868,VALID,0,VALID,27.1743,VALID,217,VALID,1.81484,
2009-07-17, 02:14:04,VALID,998.899,VALID,0,VALID,50.6836,VALID,0,VALID,27.1547,VALID,199,VALID,1.06562,
2009-07-17, 02:15:04,VALID,998.892,VALID,0,VALID,50.6988,VALID,0,VALID,27.0961,VALID,244,VALID,1.25742,
2009-07-17, 02:16:04,VALID,998.877,VALID,0,VALID,50.9735,VALID,0,VALID,27.0375,VALID,202,VALID,1.41328,
2009-07-17, 02:17:04,VALID,998.904,VALID,0,VALID,50.9201,VALID,0,VALID,27.0375,VALID,187,VALID,2.45625,
2009-07-17, 02:18:04,VALID,998.883,VALID,0,VALID,50.7217,VALID,0,VALID,27.1157,VALID,190,VALID,2.18164,
2009-07-17, 02:19:04,VALID,998.857,VALID,0,VALID,50.7599,VALID,0,VALID,27.1157,VALID,196,VALID,1.5625,
2009-07-17, 02:20:04,VALID,998.815,VALID,0,VALID,50.4852,VALID,0,VALID,27.0961,VALID,184,VALID,2.77891,
2009-07-17, 02:21:04,VALID,998.808,VALID,0,VALID,50.4013,VALID,0,VALID,27.0961,VALID,201,VALID,1.65352,
2009-07-17, 02:22:04,VALID,998.802,VALID,0,VALID,50.3326,VALID,0,VALID,27.0961,VALID,188,VALID,2.34531,
2009-07-17, 02:23:04,VALID,998.796,VALID,0,VALID,50.3402,VALID,0,VALID,27.1547,VALID,177,VALID,2.05195,
2009-07-17, 02:24:04,VALID,998.825,VALID,0,VALID,49.8748,VALID,0,VALID,27.1938,VALID,185,VALID,2.16328,
2009-07-17, 02:25:04,VALID,998.818,VALID,0,VALID,49.707,VALID,0,VALID,27.2349,VALID,183,VALID,2.75352,
2009-07-17, 02:26:04,VALID,998.814,VALID,0,VALID,49.707,VALID,0,VALID,27.3326,VALID,168,VALID,3.04453,
2009-07-17, 02:27:04,VALID,998.817,VALID,0,VALID,49.7909,VALID,0,VALID,27.2915,VALID,179,VALID,2.65859,
2009-07-17, 02:28:04,VALID,998.837,VALID,0,VALID,50.0274,VALID,0,VALID,27.2719,VALID,207,VALID,2.68555,
2009-07-17, 02:29:04,VALID,998.825,VALID,0,VALID,49.0737,VALID,0,VALID,27.3305,VALID,178,VALID,4.03203,
2009-07-17, 02:30:04,VALID,998.796,VALID,0,VALID,49.0813,VALID,0,VALID,27.3891,VALID,176,VALID,3.22734,
2009-07-17, 02:31:04,VALID,998.787,VALID,0,VALID,49.2034,VALID,0,VALID,27.4107,VALID,196,VALID,2.57734,
2009-07-17, 02:32:04,VALID,998.805,VALID,0,VALID,49.4857,VALID,0,VALID,27.3891,VALID,201,VALID,1.93555,
2009-07-17, 02:33:04,VALID,998.775,VALID,0,VALID,49.295,VALID,0,VALID,27.3891,VALID,180,VALID,2.33555,
2009-07-17, 02:34:04,VALID,998.738,VALID,0,VALID,49.3026,VALID,0,VALID,27.3696,VALID,177,VALID,3.70742,
2009-07-17, 02:35:04,VALID,998.738,VALID,0,VALID,49.4018,VALID,0,VALID,27.3912,VALID,224,VALID,2.24102,
2009-07-17, 02:36:04,VALID,998.734,VALID,0,VALID,48.8372,VALID,0,VALID,27.3305,VALID,202,VALID,2.16094,
2009-07-17, 02:37:04,VALID,998.711,VALID,0,VALID,48.9745,VALID,0,VALID,27.4282,VALID,202,VALID,2.4293,
2009-07-17, 02:38:04,VALID,998.729,VALID,0,VALID,48.7914,VALID,0,VALID,27.4282,VALID,203,VALID,1.71484,
2009-07-17, 02:39:04,VALID,998.75,VALID,0,VALID,49.1882,VALID,0,VALID,27.4086,VALID,213,VALID,1.71289,
2009-07-17, 02:40:04,VALID,998.714,VALID,0,VALID,49.3102,VALID,0,VALID,27.3891,VALID,200,VALID,2.3,
2009-07-17, 02:41:04,VALID,998.71,VALID,0,VALID,49.1424,VALID,0,VALID,27.3891,VALID,197,VALID,2.30625,
2009-07-17, 02:42:04,VALID,998.723,VALID,0,VALID,49.3026,VALID,0,VALID,27.3891,VALID,210,VALID,2.14766,
2009-07-17, 02:43:04,VALID,998.721,VALID,0,VALID,49.2721,VALID,0,VALID,27.3891,VALID,190,VALID,1.84336,
2009-07-17, 02:44:04,VALID,998.672,VALID,0,VALID,49.7222,VALID,0,VALID,27.3696,VALID,199,VALID,0.820703,
2009-07-17, 02:45:04,VALID,998.691,VALID,0,VALID,49.5391,VALID,0,VALID,27.35,VALID,177,VALID,3.26328,
2009-07-17, 02:46:05,VALID,998.697,VALID,0,VALID,49.6154,VALID,0,VALID,27.35,VALID,207,VALID,2.58672,
2009-07-17, 02:47:05,VALID,998.701,VALID,0,VALID,49.4781,VALID,0,VALID,27.3696,VALID,208,VALID,2.22539,
2009-07-17, 02:48:05,VALID,998.693,VALID,0,VALID,48.7685,VALID,0,VALID,27.4282,VALID,181,VALID,3.98242,
2009-07-17, 02:49:05,VALID,998.716,VALID,0,VALID,48.4099,VALID,0,VALID,27.5454,VALID,173,VALID,4.61953,
2009-07-17, 02:50:05,VALID,998.687,VALID,0,VALID,48.6083,VALID,0,VALID,27.5454,VALID,192,VALID,2.27891,
2009-07-17, 02:51:05,VALID,998.667,VALID,0,VALID,48.5473,VALID,0,VALID,27.5649,VALID,204,VALID,2.075,
2009-07-17, 02:52:05,VALID,998.674,VALID,0,VALID,48.883,VALID,0,VALID,27.5454,VALID,181,VALID,3.50352,
2009-07-17, 02:53:05,VALID,998.647,VALID,0,VALID,48.5396,VALID,0,VALID,27.5649,VALID,188,VALID,3.64766,
2009-07-17, 02:54:05,VALID,998.649,VALID,0,VALID,48.8067,VALID,0,VALID,27.604,VALID,189,VALID,2.86875,
2009-07-17, 02:55:05,VALID,998.614,VALID,0,VALID,49.1042,VALID,0,VALID,27.5845,VALID,168,VALID,2.9707,
2009-07-17, 02:56:05,VALID,998.614,VALID,0,VALID,49.5544,VALID,0,VALID,27.5063,VALID,169,VALID,2.74102,
2009-07-17, 02:57:05,VALID,998.625,VALID,0,VALID,50.2334,VALID,0,VALID,27.3305,VALID,172,VALID,2.99062,
2009-07-17, 02:58:05,VALID,998.622,VALID,0,VALID,50.241,VALID,0,VALID,27.2719,VALID,179,VALID,2.93477,
2009-07-17, 02:59:05,VALID,998.607,VALID,0,VALID,50.2716,VALID,0,VALID,27.2915,VALID,178,VALID,4.44336,
2009-07-17, 03:00:05,VALID,998.593,VALID,0,VALID,50.1342,VALID,0,VALID,27.3305,VALID,179,VALID,3.39766,
2009-07-17, 03:01:05,VALID,998.646,VALID,0,VALID,50.3021,VALID,0,VALID,27.3305,VALID,178,VALID,2.96094,
2009-07-17, 03:02:05,VALID,998.688,VALID,0,VALID,50.3936,VALID,0,VALID,27.311,VALID,181,VALID,3.83164,
2009-07-17, 03:03:05,VALID,998.628,VALID,0,VALID,50.4394,VALID,0,VALID,27.2915,VALID,185,VALID,2.58125,
2009-07-17, 03:04:05,VALID,998.632,VALID,0,VALID,50.6225,VALID,0,VALID,27.2935,VALID,174,VALID,2.64805,
2009-07-17, 03:05:05,VALID,998.657,VALID,0,VALID,50.5691,VALID,0,VALID,27.3131,VALID,171,VALID,4.4625,
2009-07-17, 03:06:05,VALID,998.613,VALID,0,VALID,50.7751,VALID,0,VALID,27.3284,VALID,189,VALID,1.75898,
2009-07-17, 03:07:05,VALID,998.663,VALID,0,VALID,50.7141,VALID,0,VALID,27.3305,VALID,184,VALID,1.75195,
2009-07-17, 03:08:05,VALID,998.591,VALID,0,VALID,51.1108,VALID,0,VALID,27.3305,VALID,165,VALID,2.78906,
2009-07-17, 03:09:05,VALID,998.623,VALID,0,VALID,51.1337,VALID,0,VALID,27.3305,VALID,193,VALID,3.37773,
2009-07-17, 03:10:05,VALID,998.581,VALID,0,VALID,51.5305,VALID,0,VALID,27.35,VALID,177,VALID,4.69648,
2009-07-17, 03:11:05,VALID,998.538,VALID,0,VALID,50.5081,VALID,0,VALID,27.4672,VALID,204,VALID,4.41758,
2009-07-17, 03:12:05,VALID,998.599,VALID,0,VALID,50.4165,VALID,0,VALID,27.5649,VALID,206,VALID,3.86719,
2009-07-17, 03:13:05,VALID,998.57,VALID,0,VALID,50.0427,VALID,0,VALID,27.6235,VALID,197,VALID,3.25742,
2009-07-17, 03:14:05,VALID,998.562,VALID,0,VALID,50.119,VALID,0,VALID,27.6235,VALID,177,VALID,4.79961,
2009-07-17, 03:15:05,VALID,998.6,VALID,0,VALID,50.9277,VALID,0,VALID,27.604,VALID,201,VALID,3.96211,
2009-07-17, 03:16:05,VALID,998.57,VALID,0,VALID,49.9969,VALID,0,VALID,27.6431,VALID,218,VALID,3.82031,
2009-07-17, 03:17:05,VALID,998.544,VALID,0,VALID,50.3021,VALID,0,VALID,27.6431,VALID,179,VALID,3.28945,
2009-07-17, 03:18:05,VALID,998.491,VALID,0,VALID,49.2873,VALID,0,VALID,27.6821,VALID,167,VALID,5.88984,
2009-07-17, 03:19:05,VALID,998.518,VALID,0,VALID,50.0579,VALID,0,VALID,27.7017,VALID,162,VALID,5.53828,
2009-07-17, 03:20:05,VALID,998.573,VALID,0,VALID,49.4247,VALID,0,VALID,27.7212,VALID,166,VALID,5.13906,
2009-07-17, 03:21:05,VALID,998.541,VALID,0,VALID,49.0432,VALID,0,VALID,27.8384,VALID,170,VALID,6.16641,
2009-07-17, 03:22:05,VALID,998.579,VALID,0,VALID,48.8525,VALID,0,VALID,27.8579,VALID,175,VALID,4.89336,
2009-07-17, 03:23:05,VALID,998.512,VALID,0,VALID,49.2568,VALID,0,VALID,27.8775,VALID,177,VALID,4.31211,
2009-07-17, 03:24:05,VALID,998.594,VALID,0,VALID,49.211,VALID,0,VALID,27.8579,VALID,173,VALID,6.00508,
2009-07-17, 03:25:05,VALID,998.597,VALID,0,VALID,49.2645,VALID,0,VALID,27.8558,VALID,169,VALID,5.14805,
2009-07-17, 03:26:05,VALID,998.559,VALID,0,VALID,48.5091,VALID,0,VALID,27.9361,VALID,187,VALID,4.87773,
2009-07-17, 03:27:05,VALID,998.566,VALID,0,VALID,49.2034,VALID,0,VALID,27.9773,VALID,172,VALID,4.34258,
2009-07-17, 03:28:05,VALID,998.508,VALID,0,VALID,49.1348,VALID,0,VALID,27.8991,VALID,166,VALID,7.0207,
2009-07-17, 03:29:05,VALID,998.527,VALID,0,VALID,48.8677,VALID,0,VALID,27.9187,VALID,193,VALID,5.62695,
2009-07-17, 03:30:05,VALID,998.517,VALID,0,VALID,48.6465,VALID,0,VALID,28.0164,VALID,194,VALID,4.61992,
2009-07-17, 03:31:05,VALID,998.574,VALID,0,VALID,48.8372,VALID,0,VALID,28.0359,VALID,182,VALID,3.7875,
2009-07-17, 03:32:05,VALID,998.539,VALID,0,VALID,49.089,VALID,0,VALID,28.0359,VALID,172,VALID,4.26094,
2009-07-17, 03:33:05,VALID,998.509,VALID,0,VALID,49.4628,VALID,0,VALID,27.9577,VALID,169,VALID,5.64766,
2009-07-17, 03:34:05,VALID,998.422,VALID,0,VALID,50.0122,VALID,0,VALID,27.8189,VALID,150,VALID,4.79102,
2009-07-17, 03:35:05,VALID,998.488,VALID,0,VALID,50.1724,VALID,0,VALID,27.7428,VALID,169,VALID,4.54531,
2009-07-17, 03:36:05,VALID,998.45,VALID,0,VALID,50.2868,VALID,0,VALID,27.6842,VALID,160,VALID,3.60391,
2009-07-17, 03:37:05,VALID,998.468,VALID,0,VALID,50.8514,VALID,0,VALID,27.6061,VALID,174,VALID,4.53555,
2009-07-17, 03:38:05,VALID,998.473,VALID,0,VALID,50.7675,VALID,0,VALID,27.604,VALID,170,VALID,4.4918,
2009-07-17, 03:39:05,VALID,998.453,VALID,0,VALID,51.0422,VALID,0,VALID,27.5845,VALID,174,VALID,3.3332,
2009-07-17, 03:40:05,VALID,998.518,VALID,0,VALID,51.271,VALID,0,VALID,27.5258,VALID,168,VALID,3.14531,
2009-07-17, 03:41:05,VALID,998.485,VALID,0,VALID,51.5457,VALID,0,VALID,27.4672,VALID,161,VALID,3.68555,
2009-07-17, 03:42:05,VALID,998.474,VALID,0,VALID,51.8356,VALID,0,VALID,27.3696,VALID,167,VALID,1.84727,
2009-07-17, 03:43:05,VALID,998.515,VALID,0,VALID,51.7593,VALID,0,VALID,27.2524,VALID,157,VALID,4.1207,
2009-07-17, 03:44:05,VALID,998.487,VALID,0,VALID,52.446,VALID,0,VALID,27.2524,VALID,154,VALID,5.46953,
2009-07-17, 03:45:05,VALID,998.492,VALID,0,VALID,51.8585,VALID,0,VALID,27.3891,VALID,168,VALID,4.61094,
2009-07-17, 03:46:05,VALID,998.474,VALID,0,VALID,51.6754,VALID,0,VALID,27.4889,VALID,169,VALID,4.12539,